Location: Ch�risy
(50.2331°N, 2.9131°E)
Time: 23:53:31
(UTC+00:00)

RESURS DK-1 - Pass Details

Date: 17 January 2021
Orbit: 557 x 560 km, 69.9° (Epoch: 01 March)

Event Time Altitude Azimuth Distance (km) Brightness Sun altitude
Rises 18:44:25 0° 239° (WSW) 2,737 6.9 -22.9°
Reaches altitude 10° 18:46:50 10° 250° (WSW) 1,845 6.0 -23.3°
Maximum altitude 18:50:29 29° 312° (NW) 1,032 4.0 -23.9°
Enters shadow 18:52:07 22° 352° (N) 1,244 4.1 -24.1°
